Location: Fours
(44.3167°N, 6.7000°E)
Time: 23:44:19
(UTC+00:00)

Cosmos 2218 Rocket - Pass Details

Date: 07 June 2022
Orbit: 956 x 1005 km, 82.9° (Epoch: 01 July)

Event Time Altitude Azimuth Distance (km) Brightness Sun altitude
Rises 01:49:34 0° 348° (NNW) 3,697 7.7 -15.9°
Reaches altitude 10° 01:52:07 10° 345° (NNW) 2,751 6.9 -15.7°
Maximum altitude 01:58:18 61° 267° (W) 1,122 4.1 -15.1°
Enters shadow 02:03:09 17° 192° (SSW) 2,264 5.4 -14.6°
